User: anonymous   Login
Location: Hurstbourne Priors
(51.2000°N, 1.3667°W)
Time: 11:34:02
(UTC+00:00)
Language:

BREEZE M DEB (TANK) - Orbit

View from above orbital plane
View from above orbital plane
View from above satellite
View from above satellite

Ground track
Ground track

The orbit data is extracted from the following two-line orbital elements,

1 28359U 04022B   20184.82635383 +.00001409 +00000-0 +22965-3 0  9999
2 28359 049.5254 010.2742 4641296 099.6264 314.0490 06.23635057354462
Epoch (UTC): 02 July 2020 19:49:56
Eccentricity: 0.4641296
inclination: 49.5254°
perigee height: 303 km
apogee height: 11876 km
right ascension of ascending node: 10.2742°
argument of perigee: 99.6264°
revolutions per day: 6.23635057
mean anomaly at epoch: 314.0490°
orbit number at epoch: 35446

The dashed part of the orbit path shows where the satellite is in the earth's shadow,  

DLR